User: anonymous   Login
Location: Lynch Observatory
(39.9540°N, 75.1861°W)
Time: 14:45:48
(UTC-04:00)
Language:

BUGSAT 1 - Orbit

View from above orbital plane
View from above orbital plane
View from above satellite
View from above satellite

Ground track
Ground track

The orbit data is extracted from the following two-line orbital elements,

1 40014U 14033E   24112.90520985  .00012836  00000-0  94225-3 0  9993
2 40014  98.1327 151.6796 0034661 324.2855  35.6050 15.03133669537185
Epoch (UTC): 21 April 2024 21:43:30
Eccentricity: 0.0034661
inclination: 98.1327°
perigee height: 533 km
apogee height: 581 km
right ascension of ascending node: 151.6796°
argument of perigee: 324.2855°
revolutions per day: 15.03133669
mean anomaly at epoch: 35.6050°
orbit number at epoch: 53718

The dashed part of the orbit path shows where the satellite is in the earth's shadow,  

DLR